Wind_Speed
14 13 15 10 10 9 7 6 6 6 7 10 5 10 9 9 10 10 11 14 13 12 13 13 12 12 13 15 17 18 18 17 17 18 18 19 18 18
15 17 16 12 13 11 9 9 8 8 8 3 5 8 8 7 12 11 9 13 14 12 13 13 13 13 14 15 17 18 19 20 19 18 20 21 21 19
20 20 21 19 15 13 13 12 11 10 11 10 9 10 16 16 11 15 12 12 11 15 14 13 13 14 15 16 18 18 16 18 19 20 20 20 21 21
23 24 25 22 23 20 16 16 14 14 14 14 12 12 15 14 14 17 14 12 12 14 14 16 19 18 19 18 19 17 17 16 17 18 18 19 20 21
28 27 27 27 26 22 24 18 17 19 16 15 14 13 14 13 13 12 14 13 14 17 20 17 15 17 20 20 17 17 16 18 19 18 17 17 18 18
34 32 30 30 28 26 25 24 22 18 16 15 14 14 15 15 14 12 13 13 12 11 15 12 21 20 22 19 16 16 14 15 18 20 18 18 20 19
37 37 33 32 30 28 26 26 22 23 17 16 15 16 16 17 16 14 11 12 15 16 15 15 14 16 19 17 17 14 17 18 22 25 23 20 20 21
41 39 39 33 33 33 30 26 26 24 22 17 18 20 19 17 16 16 15 14 15 13 13 12 14 17 16 14 15 18 15 19 24 24 22 21 21 23
44 43 41 34 36 36 34 31 32 31 27 27 25 23 19 16 18 18 19 18 16 13 13 12 12 13 12 16 19 21 23 25 24 25 26 26 25 24
45 45 43 42 39 39 36 36 36 37 32 30 32 26 24 26 23 20 20 21 19 18 14 14 10 12 13 12 18 21 22 23 23 20 20 21 21 21
50 44 43 43 44 45 40 37 35 34 34 31 34 30 28 25 23 15 14 17 13 15 16 14 10 9 11 14 15 18 18 21 22 23 19 19 20 20
56 51 47 47 45 46 46 42 40 37 31 32 34 31 34 28 25 24 17 16 15 14 12 12 11 11 12 13 10 14 16 18 21 21 21 22 22 20
56 52 56 57 52 51 50 47 44 36 32 31 33 30 29 28 26 26 26 22 16 16 17 15 11 11 12 14 13 14 14 13 16 18 20 21 20 23
52 50 46 49 49 48 47 44 40 33 32 32 30 23 22 23 21 21 21 23 16 19 19 17 15 12 11 13 13 12 13 13 14 19 20 20 21 22
59 43 40 43 44 44 43 43 39 35 35 32 28 24 27 20 21 20 20 19 24 24 21 20 16 11 12 13 13 11 13 13 14 18 22 21 19 20
59 53 43 44 46 44 41 37 39 37 36 30 30 22 31 26 26 25 21 22 21 17 15 14 15 14 12 11 10 11 11 12 13 17 21 21 22 21
54 50 46 47 45 46 41 39 43 37 33 28 37 28 22 27 26 25 21 16 15 15 14 15 14 13 11 11 10 8 9 10 11 18 23 23 22 20
41 56 57 50 52 54 49 47 42 31 31 39 37 26 31 29 24 23 21 20 18 16 13 11 12 10 12 15 12 9 9 11 13 18 20 22 23 23
41 50 58 58 58 55 52 47 44 46 46 43 34 29 26 27 25 24 22 19 18 16 14 13 15 14 13 14 7 8 10 11 13 15 18 22 25 25
46 50 56 59 56 54 50 47 42 40 43 40 33 30 30 26 27 24 24 20 18 15 14 14 15 13 13 13 11 9 13 12 11 18 20 26 25 24
53 49 56 55 52 50 49 44 37 33 38 37 33 29 29 29 25 23 22 21 19 16 16 15 15 16 13 13 12 8 7 12 16 19 22 23 26 24
54 56 57 57 54 41 41 32 36 34 36 36 31 30 29 27 23 23 20 19 19 18 16 13 15 13 12 13 12 9 10 11 17 18 22 21 24 24
32 32 52 50 41 35 38 39 36 39 37 32 31 30 28 24 23 20 18 19 17 14 16 15 14 13 14 13 12 11 11 13 13 17 17 22 24 23
Wind_Direction
231 222 208 213 224 226 234 236 242 274 250 214 233 235 225 241 244 245 235 248 263 267 270 274 280 278 287 295 299 296 291 289 295 296 297 296 289 285
220 240 231 219 229 229 227 234 236 245 263 257 239 226 227 231 256 250 236 244 257 263 266 264 258 267 284 297 300 296 293 294 294 293 295 294 290 286
224 224 244 223 219 234 233 231 234 237 243 250 250 248 249 250 241 255 235 250 265 272 277 272 267 273 288 298 297 295 288 289 295 299 298 295 293 288
231 230 242 241 233 220 226 233 232 234 238 244 238 245 261 261 247 242 246 248 262 275 269 275 281 283 292 297 293 290 288 289 293 294 293 295 290 289
237 238 242 242 242 235 232 230 239 231 239 242 243 249 250 263 255 263 253 265 261 265 272 282 293 290 294 295 297 288 283 289 295 294 295 294 292 291
238 240 242 243 243 242 232 237 223 227 239 239 251 251 250 251 249 256 268 261 257 263 265 281 292 301 306 300 314 314 301 296 306 302 291 291 294 293
234 241 241 242 249 245 240 237 238 233 232 242 250 252 250 250 245 255 261 261 266 261 263 276 294 296 301 306 306 294 295 299 302 304 294 287 287 290
236 235 240 242 244 248 246 239 245 242 244 236 243 248 251 249 253 257 266 269 276 269 259 275 288 295 312 288 295 308 301 298 301 296 293 288 287 287
240 237 236 233 243 243 244 241 242 244 245 254 247 236 242 250 249 253 255 262 264 258 282 274 276 285 292 298 299 295 294 298 302 294 288 288 290 291
243 241 235 236 236 242 243 241 239 240 243 247 250 248 247 239 245 258 260 261 266 260 253 260 280 282 286 284 288 293 298 305 310 308 302 300 299 299
244 239 237 236 235 242 242 244 246 241 242 243 248 242 245 242 247 238 243 251 263 260 253 251 267 278 279 282 291 295 303 317 320 323 325 325 325 324
243 240 238 237 239 239 242 242 239 244 237 239 247 232 238 239 240 241 238 246 249 265 254 226 259 276 286 286 277 296 306 310 311 316 318 317 318 315
235 235 238 241 238 239 241 238 244 246 243 240 246 236 232 236 236 236 240 234 244 253 257 250 252 266 272 281 286 289 295 300 302 301 307 311 310 309
232 236 236 235 234 235 235 237 239 236 229 238 241 239 223 220 223 232 238 227 225 236 244 247 247 262 268 277 285 290 295 302 306 307 306 306 307 310
239 228 236 238 243 235 232 232 230 225 225 230 229 213 221 211 217 218 216 232 220 236 245 260 265 251 263 270 279 290 298 307 308 307 307 307 304 302
240 231 224 235 228 231 218 226 224 228 224 227 218 226 218 204 204 206 201 228 223 243 256 271 286 289 280 263 273 284 292 299 310 306 304 303 303 304
236 230 230 227 222 214 210 214 212 205 215 216 227 226 210 204 199 205 202 211 213 227 234 259 263 277 279 263 272 275 294 300 308 303 306 305 307 309
228 229 231 224 220 215 211 200 199 216 215 226 229 220 202 204 196 205 210 210 221 231 234 234 248 265 272 279 282 269 282 295 304 303 309 306 305 307
248 237 232 226 225 222 205 204 205 209 234 223 211 200 200 204 202 200 209 218 223 227 230 233 234 242 254 265 281 292 284 297 304 304 305 305 305 308
241 238 236 228 217 214 208 202 207 213 208 204 201 194 195 201 202 202 214 219 224 226 227 228 236 234 243 260 265 265 293 308 302 301 302 305 305 312
244 239 221 212 202 198 196 202 206 206 202 201 194 191 196 197 200 207 219 223 222 223 228 229 238 234 231 257 276 290 306 305 303 308 312 308 311 314
245 223 203 196 193 194 201 200 200 188 199 195 186 191 194 196 201 211 213 219 221 221 227 227 236 243 244 246 263 281 292 294 307 313 315 310 311 312
244 260 177 182 188 191 190 187 185 180 184 183 185 189 193 195 203 210 214 218 221 219 219 220 222 235 243 248 259 276 288 299 302 306 306 308 312 316
Height
1575 1576 1578 1581 1581 1582 1584 1585 1585 1584 1582 1582 1585 1585 1585 1585 1585 1585 1586 1586 1587 1586 1587 1588 1589 1586 1584 1584 1583 1580 1578 1577 1576 1576 1577 1575 1573 1573
1572 1573 1574 1577 1579 1580 1581 1582 1583 1583 1582 1582 1582 1583 1582 1583 1581 1582 1583 1583 1583 1585 1583 1583 1584 1583 1584 1583 1581 1580 1580 1578 1575 1572 1572 1572 1570 1569
1568 1570 1570 1572 1574 1577 1577 1579 1580 1581 1580 1579 1580 1579 1579 1580 1579 1578 1580 1581 1582 1579 1580 1580 1579 1579 1580 1580 1578 1577 1576 1575 1573 1571 1568 1567 1567 1566
1561 1563 1564 1566 1569 1571 1574 1575 1576 1576 1577 1577 1578 1577 1576 1575 1574 1575 1576 1578 1579 1577 1577 1577 1577 1577 1577 1575 1572 1571 1571 1569 1570 1568 1566 1563 1561 1561
1554 1555 1557 1559 1561 1564 1566 1570 1570 1570 1572 1572 1574 1573 1574 1572 1572 1573 1574 1577 1577 1576 1574 1573 1571 1570 1570 1570 1569 1568 1565 1565 1564 1563 1561 1560 1560 1558
1546 1549 1550 1551 1554 1557 1560 1561 1564 1567 1567 1570 1571 1571 1570 1570 1571 1572 1572 1571 1570 1571 1569 1570 1569 1568 1564 1564 1563 1561 1562 1562 1561 1559 1557 1556 1555 1555
1539 1541 1544 1546 1548 1551 1553 1556 1558 1561 1564 1566 1567 1566 1566 1567 1567 1567 1566 1567 1567 1565 1568 1567 1567 1565 1561 1558 1557 1558 1556 1554 1556 1555 1553 1551 1550 1549
1532 1535 1537 1539 1541 1543 1546 1550 1552 1554 1557 1560 1560 1561 1561 1562 1563 1565 1564 1563 1563 1561 1561 1564 1561 1558 1558 1557 1553 1552 1553 1551 1550 1550 1549 1546 1543 1543
1523 1525 1528 1531 1532 1535 1538 1542 1543 1544 1548 1550 1551 1554 1556 1556 1557 1558 1558 1558 1558 1559 1556 1556 1556 1556 1557 1553 1550 1549 1548 1546 1545 1544 1543 1542 1538 1535
1513 1514 1518 1522 1522 1524 1527 1530 1532 1534 1538 1542 1542 1544 1546 1549 1550 1551 1553 1553 1554 1552 1552 1551 1551 1552 1551 1550 1547 1546 1545 1542 1539 1538 1537 1536 1534 1530
1502 1506 1509 1511 1513 1514 1518 1522 1523 1526 1528 1531 1534 1534 1537 1539 1541 1544 1546 1548 1548 1549 1547 1548 1549 1547 1546 1545 1545 1542 1540 1539 1537 1536 1535 1532 1529 1526
1489 1493 1495 1498 1502 1505 1507 1511 1512 1515 1520 1521 1522 1524 1529 1527 1531 1536 1541 1542 1544 1546 1544 1544 1545 1544 1541 1542 1542 1540 1538 1535 1533 1532 1531 1530 1526 1523
1472 1476 1475 1478 1484 1488 1493 1497 1502 1509 1512 1515 1517 1519 1521 1523 1524 1527 1531 1535 1540 1541 1539 1540 1540 1541 1539 1538 1537 1536 1534 1532 1530 1529 1529 1527 1524 1521
1461 1468 1472 1469 1474 1481 1488 1491 1498 1502 1504 1507 1509 1514 1513 1514 1519 1522 1523 1527 1534 1536 1531 1532 1535 1537 1535 1534 1531 1531 1530 1528 1528 1528 1526 1524 1521 1517
1451 1457 1457 1468 1470 1472 1476 1484 1491 1494 1494 1495 1503 1499 1511 1507 1514 1516 1518 1521 1525 1527 1528 1527 1529 1530 1532 1529 1528 1527 1526 1525 1525 1525 1525 1522 1517 1513
1442 1446 1449 1450 1451 1459 1467 1473 1476 1491 1484 1485 1492 1495 1504 1500 1504 1510 1511 1512 1518 1523 1522 1523 1524 1524 1523 1526 1525 1522 1521 1519 1519 1520 1519 1516 1513 1509
1438 1437 1436 1435 1441 1446 1451 1456 1463 1459 1477 1477 1483 1488 1489 1498 1499 1505 1507 1508 1513 1518 1518 1516 1519 1519 1520 1520 1518 1515 1515 1514 1512 1514 1514 1511 1508 1504
1424 1424 1424 1424 1423 1424 1431 1439 1451 1457 1465 1473 1478 1478 1485 1494 1498 1504 1505 1508 1510 1514 1514 1516 1517 1517 1514 1513 1513 1510 1509 1510 1509 1510 1510 1506 1502 1499
1409 1409 1409 1410 1413 1417 1425 1425 1432 1440 1457 1465 1466 1472 1481 1489 1492 1497 1500 1505 1505 1505 1507 1508 1510 1510 1510 1511 1511 1508 1506 1505 1504 1504 1505 1503 1496 1491
1392 1392 1394 1398 1403 1408 1417 1425 1432 1441 1447 1453 1459 1466 1473 1483 1487 1491 1497 1498 1500 1501 1500 1502 1506 1505 1505 1508 1506 1502 1499 1499 1500 1502 1500 1496 1493 1487
1379 1376 1377 1382 1386 1397 1409 1418 1425 1425 1444 1448 1453 1461 1468 1474 1479 1485 1491 1494 1494 1496 1498 1497 1499 1500 1500 1503 1501 1497 1496 1496 1496 1496 1495 1492 1487 1482
1364 1357 1360 1361 1373 1389 1405 1412 1421 1421 1440 1447 1451 1457 1464 1469 1474 1480 1482 1486 1488 1490 1492 1494 1492 1494 1496 1496 1497 1494 1494 1494 1491 1491 1491 1488 1484 1478
1362 1356 1322 1335 1375 1383 1398 1406 1414 1420 1430 1439 1445 1454 1460 1464 1468 1473 1476 1480 1483 1484 1486 1488 1489 1490 1493 1492 1491 1490 1490 1490 1488 1488 1489 1485 1480 1475